Weather History for Akron, CO

Change the Weather History Date:

Monday, September 9, 2013

  Actual Average Record
Temperature  
Mean Temperature 74 °F 66 °F  
Max Temperature 89 °F 80 °F 95 °F (1964)
Min Temperature 58 °F 52 °F 28 °F (1941)
Degree Days  
Heating Degree Days 0    
Month to date heating degree days 0  
Cooling Degree Days 9    
Month to date cooling degree days 116  
Growing Degree Days 24 (Base 50)    
Moisture  
Dew Point 52 °F    
Average Humidity 62    
Maximum Humidity 97    
Minimum Humidity 27    
Precipitation  
Precipitation 0.01 in 0.03 in 1.67 in (1950)
Month to date precipitation 0.02 0.41  
Year to date precipitation 11.44 13.90  
Sea Level Pressure  
Sea Level Pressure 29.81 in    
Wind  
Wind Speed 13 mph (NNW)    
Max Wind Speed 37 mph    
Max Gust Speed 45 mph    
Visibility 10 miles    
Events Rain , Thunderstorm    
T = Trace of Precipitation, MM = Missing Value Source: NWS Daily Summary

Daily Weather History Graph

Daily Weather History Graph

Search for Another Location

Airport:

Trip Planner

Search our weather history database for the weather conditions in past years. The results will help you decide how hot, cold, wet, or windy it might be!

Date:

Astronomy

Sep. 09, 2013 Rise Set
Actual Time 6:28 AM MDT 7:11 PM MDT
Civil Twilight 6:00 AM MDT 7:38 PM MDT
Nautical Twilight 5:28 AM MDT 8:10 PM MDT
Astronomical Twilight 4:54 AM MDT 8:44 PM MDT
Moon 10:52 AM MDT (9/9) 9:28 PM MDT (9/9)
Length of Visible Light 13h 37m
Length of Day
12h 42m
Waxing Crescent, 19% of the Moon is Illuminated
Sep 9
Waxing Crescent
Sep 12
First Quarter
Sep 19
Full
Sep 26
Last Quarter
Oct 4
New

Hourly Weather History & Observations

Time (MDT) Temp. Heat Index Dew Point Humidity Pressure Visibility Wind Dir Wind Speed Gust Speed Precip Events Conditions
12:53 AM 68.0 °F - 43.0 °F 40% 29.73 in 10.0 mi West 9.2 mph - N/A   Clear
1:53 AM 69.1 °F - 43.0 °F 39% 29.74 in 10.0 mi West 13.8 mph - N/A   Clear
2:53 AM 66.9 °F - 46.9 °F 49% 29.73 in 10.0 mi NW 8.1 mph - N/A   Clear
3:53 AM 63.0 °F - 48.0 °F 58% 29.73 in 10.0 mi NW 6.9 mph - N/A   Clear
4:53 AM 61.0 °F - 48.9 °F 64% 29.74 in 10.0 mi WNW 8.1 mph - N/A   Clear
5:53 AM 60.1 °F - 50.0 °F 69% 29.75 in 10.0 mi NNW 8.1 mph - N/A   Clear
6:53 AM 61.0 °F - 52.0 °F 72% 29.78 in 10.0 mi WNW 6.9 mph - N/A   Clear
7:53 AM 70.0 °F - 57.9 °F 65% 29.77 in 10.0 mi NNE 10.4 mph 17.3 mph N/A   Clear
8:53 AM 75.9 °F - 55.0 °F 48% 29.78 in 10.0 mi NE 13.8 mph 20.7 mph N/A   Clear
9:53 AM 80.1 °F 79.9 °F 53.1 °F 39% 29.77 in 10.0 mi ENE 12.7 mph 23.0 mph N/A   Clear
10:53 AM 82.9 °F - 51.1 °F 33% 29.76 in 10.0 mi NE 19.6 mph 24.2 mph N/A   Clear
11:53 AM 82.9 °F - 51.1 °F 33% 29.75 in 10.0 mi ENE 13.8 mph 23.0 mph N/A   Clear
12:53 PM 84.0 °F - 50.0 °F 31% 29.76 in 10.0 mi Variable 6.9 mph 19.6 mph N/A   Partly Cloudy
1:53 PM 87.1 °F - 50.0 °F 28% 29.72 in 10.0 mi East 12.7 mph 24.2 mph N/A   Clear
2:53 PM 87.1 °F - 52.0 °F 30% 29.70 in 10.0 mi NE 15.0 mph 19.6 mph N/A   Scattered Clouds
3:53 PM 87.1 °F - 52.0 °F 30% 29.69 in 10.0 mi East 11.5 mph 20.7 mph N/A   Clear
4:53 PM 86.0 °F - 48.9 °F 28% 29.69 in 10.0 mi East 6.9 mph - N/A   Clear
5:53 PM 84.9 °F - 48.9 °F 29% 29.70 in 10.0 mi Variable 4.6 mph - N/A   Clear
6:53 PM 68.0 °F - 53.1 °F 59% 29.83 in 10.0 mi WNW 34.5 mph 44.9 mph N/A   Mostly Cloudy
7:14 PM 66.2 °F - 53.6 °F 64% 29.95 in 10.0 mi NNW 26.5 mph 42.6 mph N/A   Partly Cloudy
7:28 PM 66.2 °F - 51.8 °F 60% 29.97 in 10.0 mi NNW 29.9 mph 41.4 mph N/A Thunderstorm Clear
7:43 PM 68.0 °F - 51.8 °F 56% 29.96 in 10.0 mi NNW 24.2 mph - N/A   Clear
7:53 PM 66.0 °F - 53.1 °F 63% 29.80 in 10.0 mi NNW 26.5 mph 38.0 mph N/A   Partly Cloudy
8:35 PM 62.6 °F - 55.4 °F 77% 29.97 in 10.0 mi North 26.5 mph 35.7 mph N/A Thunderstorm Thunderstorm
8:53 PM 64.0 °F - 54.0 °F 70% 29.82 in 10.0 mi North 23.0 mph 29.9 mph N/A Thunderstorm Thunderstorm
9:22 PM 62.6 °F - 57.2 °F 82% 29.98 in 10.0 mi North 13.8 mph 27.6 mph 0.01 in Rain Light Rain
9:53 PM 61.0 °F - 57.9 °F 90% 29.87 in 10.0 mi NW 20.7 mph 27.6 mph 0.01 in   Mostly Cloudy
10:39 PM 60.8 °F - 59.0 °F 94% 30.07 in 10.0 mi WNW 17.3 mph 26.5 mph N/A   Mostly Cloudy
10:53 PM 61.0 °F - 59.0 °F 93% 29.90 in 10.0 mi NW 17.3 mph - N/A   Mostly Cloudy
11:53 PM 61.0 °F - 57.9 °F 90% 29.91 in 10.0 mi NW 13.8 mph - N/A   Scattered Clouds